Date,TemperatureHighF,TemperatureAvgF,TemperatureLowF,DewpointHighF,DewpointAvgF,DewpointLowF,HumidityHigh,HumidityAvg,HumidityLow,PressureMaxIn,PressureMinIn,WindSpeedMaxMPH,WindSpeedAvgMPH,GustSpeedMaxMPH,PrecipitationSumIn
2013-3-5,34.0,30.6,28.4,17.2,11.6,7.9,54,45,37,29.97,29.91,9,2,9,0.00
2013-3-6,41.0,38.1,32.2,27.8,25.3,17.4,70,60,49,29.91,29.77,28,12,28,0.20
2013-3-7,36.7,35.7,35.4,28.2,27.8,24.5,74,73,61,30.03,29.83,9,4,9,0.43
2013-3-8,39.4,38.0,36.9,27.6,23.6,17.3,68,56,43,30.12,30.00,15,6,15,0.75
2013-3-9,57.2,46.2,31.1,15.0,4.9,-5.1,50,21,12,30.27,30.15,11,3,11,0.75
2013-3-10,49.5,37.3,26.6,32.0,20.1,14.5,71,51,29,30.36,30.27,11,2,11,0.00
2013-3-11,49.6,41.5,31.3,42.0,32.2,23.6,75,70,53,30.30,30.06,13,2,13,0.00
2013-3-12,55.9,50.8,45.1,49.2,40.8,33.3,78,69,56,30.06,29.65,15,6,15,0.75
2013-3-13,45.0,41.9,39.7,34.3,29.8,27.6,66,62,59,29.83,29.80,9,3,9,0.00
2013-3-14,39.6,36.1,33.8,-6.3,-8.0,-8.9,15,14,13,29.94,29.83,21,7,21,0.00
2013-3-15,50.2,38.8,28.2,2.8,-4.5,-12.5,21,15,14,29.97,29.68,21,6,21,0.00
2013-3-16,42.8,36.9,34.0,26.4,15.1,-0.7,72,45,18,29.88,29.74,8,2,8,0.00
2013-3-17,45.9,35.5,26.8,25.9,7.6,-7.4,74,39,15,30.27,29.88,15,3,15,0.04
2013-3-18,43.5,35.6,26.2,34.5,13.6,-5.6,79,43,20,30.36,29.94,22,7,22,0.43
2013-3-19,46.0,41.9,37.9,38.0,29.1,-4.4,80,64,16,29.94,29.65,26,6,26,0.43
2013-3-20,52.9,41.1,30.4,4.2,-0.9,-7.5,30,17,12,29.88,29.77,26,7,26,0.00
2013-3-21,39.4,34.2,29.1,17.9,7.3,-7.0,50,33,16,29.77,29.62,15,4,15,0.43
2013-3-22,46.9,35.4,25.7,5.8,-1.7,-8.1,37,21,14,29.88,29.74,17,7,17,0.43
2013-3-23,53.2,39.2,27.1,6.3,1.1,-8.9,38,22,13,29.88,29.77,27,6,27,0.43
2013-3-24,54.3,39.5,25.5,10.9,2.2,-8.2,40,22,13,29.91,29.65,13,3,13,0.43
2013-3-25,39.0,36.6,33.6,30.2,24.6,11.6,77,64,34,29.65,29.38,20,6,20,0.71
2013-3-26,53.1,42.1,31.8,37.0,18.7,3.7,78,46,16,29.83,29.56,13,4,13,0.43
2013-3-27,58.1,44.2,31.8,17.9,8.5,-0.1,48,26,12,29.94,29.83,22,6,22,0.00
2013-3-28,59.2,44.4,34.0,18.1,9.5,1.0,51,27,12,30.06,29.94,13,5,13,0.00
2013-3-29,62.6,46.2,33.8,15.7,7.8,-1.6,45,24,11,30.12,30.00,16,4,16,0.00
2013-3-30,64.8,46.0,30.7,22.3,12.4,3.7,53,30,10,30.15,30.03,13,3,13,0.00
2013-3-31,58.8,46.4,32.5,42.6,23.5,10.2,76,44,17,30.09,29.65,20,4,20,0.51